User: anonymous   Login
Location: *
(51.1248°S, 108.4023°W)
Time: 06:04:24
(UTC+00:00)
Language:

Envisat - Orbit

View from above orbital plane
View from above orbital plane
View from above satellite
View from above satellite

Ground track
Ground track

The orbit data is extracted from the following two-line orbital elements,

1 27386U 02009A   21298.57069854  .00000039  00000-0  26447-4 0  9992
2 27386  98.1606 286.0516 0001239  91.3984  18.6430 14.38049248 29775
Epoch (UTC): 25 October 2021 13:41:48
Eccentricity: 0.0001239
inclination: 98.1606°
perigee height: 764 km
apogee height: 766 km
right ascension of ascending node: 286.0516°
argument of perigee: 91.3984°
revolutions per day: 14.38049248
mean anomaly at epoch: 18.6430°
orbit number at epoch: 2977

The dashed part of the orbit path shows where the satellite is in the earth's shadow,  

DLR